[[{"header":{"parameterUnit":"m.s-1","parameterCategory":1,"la1":30.2991,"la2":30.254,"lo1":-89.0895,"lo2":-89.0444,"dy":0.0017,"dx":0.0017,"nx":28,"ny":28,"refTime":"2024-03-14T03:00:00:Z","depth":0,"parameterNumber":2,"parameterNumberName":"U-component_of_WINDS"},"data":[0,0,0,0,0,0,0,0,0,0,0,0,0,0,0,0,0,0,0,0,0,0,0,0,0,0,0,0,0,0,0,0,0,0,0,0,0,0,0,0,0,0,0,0,0,0,0,0,0,0,0,0,0,0,0,0,0,0,-4.029,-4.029,0,-4.0336,-4.0337,-4.0338,-4.031,-4.0309,-4.0307,-4.0306,-4.0353,-4.0356,-4.0358,0,0,0,0,0,0,0,0,0,0,0,0,0,-4.0176,-4.0178,-4.029,-4.029,-4.0291,-4.0336,-4.0337,-4.0338,-4.031,-4.0309,-4.0307,-4.0306,-4.0352,-4.0355,-4.0358,0,0,0,0,0,0,0,0,0,0,0,0,0,-4.0224,-4.0179,-4.0289,-4.0283,-4.0282,-4.0336,-4.0337,-4.0338,-4.0311,-4.0309,-4.0307,-4.0305,-4.0351,-4.0355,-4.0359,-4.0422,0,0,-4.037,-4.0372,0,0,0,0,0,0,0,0,-4.0222,-4.0229,-4.0283,-4.0283,-4.0283,-4.0315,-4.0314,-4.0366,-4.0311,-4.03,-4.0306,-4.0304,-4.0342,-4.0347,-4.036,-4.0424,-4.0426,-4.037,-4.0373,-4.0374,-4.0375,0,0,0,0,0,0,0,-4.0218,-4.0226,-4.0308,-4.0284,-4.0284,-4.0277,-4.0282,-4.0324,-4.0332,-4.0301,-4.0299,-4.0305,-4.0342,-4.0356,-4.0361,-4.0427,-4.037,-4.0374,-4.0376,-4.0377,-4.0545,-4.0547,0,0,0,0,0,0,-4.0216,-4.0224,-4.0307,-4.0309,-4.0247,-4.0281,-4.0286,-4.0307,-4.0331,-4.0333,-4.0307,-4.0303,-4.0351,-4.0356,-4.0362,-4.0437,-4.0374,-4.0378,-4.038,-4.0543,-4.0545,-4.0548,0,0,0,0,0,0,-4.0213,-4.0223,-4.0305,-4.0266,-4.0276,-4.0285,-4.0309,-4.0309,-4.0323,-4.0335,-4.0337,-4.032,-4.0349,-4.0357,-4.0407,-4.0438,-4.038,-4.0383,-4.054,-4.0543,-4.0546,-4.0587,0,0,0,0,0,0,-4.021,-4.0223,-4.0246,-4.0267,-4.0278,-4.0349,-4.0311,-4.0311,-4.033,-4.0326,-4.0348,-4.035,-4.0348,-4.0402,-4.0411,-4.0442,-4.0386,-4.0537,-4.0541,-4.0545,-4.0583,-4.0591,-4.0598,0,0,0,0,0,-4.0206,-4.0256,-4.0248,-4.0258,-4.0308,-4.0351,-4.0357,-4.0355,-4.0333,-4.0356,-4.0365,-4.0349,-4.0434,-4.0407,-4.0417,-4.045,-4.0535,-4.054,-4.0545,-4.0579,-4.0589,-4.0598,0,0,0,0,0,0,-4.0238,-4.0258,-4.025,-4.0307,-4.0328,-4.0346,-4.0376,-4.0366,-4.0392,-4.0388,-4.0384,-4.0389,-4.0441,-4.0451,-4.0421,-4.0512,-4.0481,-4.0488,-4.0503,-4.0513,-4.0521,-4.0516,-4.0389,0,0,0,0,0,-4.0252,-4.0285,-4.0301,-4.035,-4.0361,-4.0367,-4.0385,-4.0382,-4.0403,-4.0411,-4.0422,-4.0443,-4.0474,-4.0495,-4.0524,-4.0585,-4.0589,-4.0612,-4.062,-4.0627,-4.0632,-4.0665,-4.0675,-4.0564,-4.0564,-4.0564,0,0,-4.028,-4.0296,-4.0316,-4.0357,-4.0372,-4.0406,-4.0374,-4.0411,-4.0436,-4.0416,-4.0464,-4.0474,-4.0497,-4.0552,-4.0577,-4.0562,-4.0664,-4.0633,-4.0638,-4.064,-4.0671,-4.0681,-4.0691,-4.0567,-4.0567,-4.0566,0,0,-4.0349,-4.0365,-4.0407,-4.0424,-4.0447,-4.0451,-4.0462,-4.0482,-4.0488,-4.0536,-4.0522,-4.0552,-4.0606,-4.0622,-4.0638,-4.0715,-4.0702,-4.0725,-4.0765,-4.0797,-4.0805,-4.0813,-4.0839,-4.0849,-4.0731,-4.0731,-4.0731,0,-4.0381,-4.0432,-4.043,-4.0469,-4.0487,-4.0472,-4.0514,-4.053,-4.0563,-4.0575,-4.0558,-4.0626,-4.064,-4.0699,-4.0718,-4.0732,-4.0743,-4.0721,-4.0804,-4.0812,-4.0819,-4.0844,-4.0854,-4.0734,-4.0734,-4.0733,-4.0733,0,-4.047,-4.0506,-4.0537,-4.0569,-4.0591,-4.0632,-4.0636,-4.0658,-4.0654,-4.066,-4.0709,-4.0726,-4.0759,-4.0773,-4.0769,-4.0832,-4.0821,-4.0805,-4.0773,-4.0832,-4.0856,-4.0865,-4.0738,-4.0737,-4.0736,-4.0735,0,0,-4.0558,-4.059,-4.0601,-4.0615,-4.0641,-4.0668,-4.0709,-4.0741,-4.076,-4.0784,-4.0817,-4.0864,-4.0848,-4.0866,-4.0864,-4.0892,-4.0951,-4.0872,-4.0872,-4.0884,-4.1021,-4.1032,-4.1043,-4.0944,-4.0945,-4.0947,-4.1018,0,-4.0627,-4.0697,-4.0698,-4.0762,-4.0795,-4.0781,-4.0817,-4.0836,-4.0844,-4.0872,-4.088,-4.0913,-4.0891,-4.0902,-4.0929,-4.0938,-4.0978,-4.0933,-4.0973,-4.0975,-4.0966,-4.1055,-4.1067,-4.1133,-4.1028,-4.1029,-4.103,0,-4.0717,-4.0744,-4.0811,-4.0833,-4.0847,-4.0878,-4.0908,-4.0936,-4.0958,-4.0962,-4.0982,-4.0976,-4.1017,-4.0986,-4.1042,-4.1012,-4.1029,-4.1036,-4.1038,-4.104,-4.1004,-4.1058,-4.1155,-4.1164,-4.1045,-4.1044,-4.1043,0,-4.0773,-4.0826,-4.0873,-4.0886,-4.0913,-4.0935,-4.0947,-4.0968,-4.0987,-4.1014,-4.1026,-4.1057,-4.1074,-4.1098,-4.11,-4.1078,-4.1157,-4.1126,-4.116,-4.1159,-4.1175,-4.1173,-4.1274,-4.1189,-4.1189,-4.1189,-4.1189,0,-4.0849,-4.089,-4.0898,-4.0927,-4.0973,-4.0974,-4.102,-4.103,-4.1049,-4.1079,-4.1071,-4.11,-4.1102,-4.1132,-4.1135,-4.118,-4.1188,-4.1191,-4.1191,-4.1191,-4.119,-4.12,-4.1195,-4.1191,-4.1191,-4.119,-4.119,0,-4.0918,-4.0925,-4.0975,-4.0997,-4.1003,-4.1036,-4.1055,-4.1083,-4.109,-4.1129,-4.1138,-4.1149,-4.1184,-4.1189,-4.123,-4.1232,-4.1286,-4.1282,-4.1278,-4.1277,-4.131,-4.1306,-4.1418,-4.1433,-4.1341,-4.1342,-4.1342,0,-4.0965,-4.0996,-4.1022,-4.1042,-4.1055,-4.1088,-4.1108,-4.111,-4.1131,-4.116,-4.1184,-4.1218,-4.1245,-4.1302,-4.1313,-4.1345,-4.134,-4.1378,-4.1345,-4.1344,-4.1339,-4.1336,-4.1339,-4.1383,-4.1384,-4.1385,-4.1386,0,-4.1047,-4.1049,-4.1079,-4.111,-4.1134,-4.1158,-4.1181,-4.1198,-4.1204,-4.1228,-4.1264,-4.1285,-4.1327,-4.1361,-4.1392,-4.1405,-4.1396,-4.1396,-4.1405,-4.1404,-4.14,-4.1401,-4.1293,-4.1393,-4.1392,-4.1392,-4.1391,-4.1391,-4.1105,-4.1133,-4.1155,-4.1188,-4.1206,-4.1228,-4.1255,-4.1266,-4.1296,-4.133,-4.133,-4.1369,-4.1392,-4.1433,-4.1448,-4.1478,-4.1466,-4.148,-4.1483,-4.1486,-4.1488,-4.1397,-4.1484,-4.1484,-4.1484,-4.1484,-4.1484,0,-4.1186,-4.12,-4.1231,-4.1263,-4.1289,-4.128,-4.1306,-4.1328,-4.1362,-4.1384,-4.1411,-4.1452,-4.1485,-4.15,-4.1533,-4.1554,-4.1551,-4.1563,-4.156,-4.1563,-4.1498,-4.1486,-4.1565,-4.1565,-4.1565,-4.1565,-4.1565,-4.1565,-4.1231,-4.1277,-4.1282,-4.1336,-4.135,-4.1388,-4.1403,-4.1424,-4.1441,-4.1487,-4.1515,-4.1525,-4.1544,-4.1578,-4.1608,-4.1611,-4.1623,-4.1636,-4.1638,-4.1576,-4.1568,-4.156,-4.1548,-4.1639,-4.1639,-4.17,-4.1701,-4.1701]},{"header":{"parameterUnit":"m.s-1","parameterCategory":1,"la1":30.2991,"la2":30.254,"lo1":-89.0895,"lo2":-89.0444,"dy":0.0017,"dx":0.0017,"nx":28,"ny":28,"refTime":"2024-03-14T03:00:00:Z","depth":0,"parameterNumber":3,"parameterNumberName":"V-component_of_WINDS"},"data":[0,0,0,0,0,0,0,0,0,0,0,0,0,0,0,0,0,0,0,0,0,0,0,0,0,0,0,0,0,0,0,0,0,0,0,0,0,0,0,0,0,0,0,0,0,0,0,0,0,0,0,0,0,0,0,0,0,0,3.0047,3.0047,0,3.0064,3.0064,3.0064,3.0049,3.0049,3.0048,3.0047,3.0063,3.0064,3.0065,0,0,0,0,0,0,0,0,0,0,0,0,0,3.0005,3.0006,3.0047,3.0047,3.0048,3.0064,3.0064,3.0064,3.0049,3.0049,3.0048,3.0047,3.0063,3.0064,3.0065,0,0,0,0,0,0,0,0,0,0,0,0,0,3.0022,3.0006,3.0047,3.0042,3.0042,3.0064,3.0064,3.0064,3.0049,3.0049,3.0048,3.0047,3.0062,3.0064,3.0065,3.0092,0,0,3.007,3.007,0,0,0,0,0,0,0,0,3.0021,3.0024,3.0043,3.0043,3.0042,3.0053,3.0055,3.0074,3.005,3.0047,3.0047,3.0046,3.0061,3.0062,3.0067,3.0093,3.0094,3.007,3.0071,3.0071,3.0072,0,0,0,0,0,0,0,3.002,3.0023,3.0054,3.0043,3.0043,3.004,3.0041,3.0058,3.0058,3.0047,3.0046,3.0048,3.006,3.0066,3.0067,3.0094,3.007,3.0071,3.0072,3.0073,3.0147,3.0148,0,0,0,0,0,0,3.0019,3.0022,3.0053,3.0054,3.0029,3.0041,3.0043,3.0051,3.0058,3.0058,3.0049,3.0047,3.0064,3.0066,3.0068,3.0103,3.0071,3.0073,3.0074,3.0146,3.0147,3.0149,0,0,0,0,0,0,3.0019,3.0022,3.0052,3.0038,3.0042,3.0043,3.0052,3.0052,3.0057,3.006,3.006,3.0054,3.0063,3.0066,3.0087,3.0103,3.0073,3.0075,3.0145,3.0146,3.0148,3.0171,0,0,0,0,0,0,3.0017,3.0022,3.0032,3.0038,3.0042,3.0071,3.0053,3.0053,3.006,3.0058,3.0065,3.0065,3.0063,3.0085,3.0089,3.0105,3.0076,3.0143,3.0146,3.0147,3.0169,3.0174,3.0177,0,0,0,0,0,3.0016,3.0036,3.0032,3.0036,3.0055,3.0072,3.0074,3.0072,3.0061,3.0071,3.0074,3.0065,3.0101,3.0088,3.0091,3.0108,3.0142,3.0145,3.0147,3.0167,3.0173,3.0177,0,0,0,0,0,0,3.003,3.0037,3.0032,3.0056,3.0064,3.007,3.0082,3.0077,3.0087,3.0085,3.0081,3.0083,3.0106,3.0109,3.0094,3.0137,3.012,3.0123,3.0134,3.0139,3.0143,3.0142,3.0077,0,0,0,0,0,3.0037,3.005,3.0055,3.0075,3.008,3.0081,3.0088,3.0085,3.0093,3.0096,3.01,3.0108,3.0121,3.013,3.0142,3.0169,3.0172,3.0183,3.0187,3.019,3.0194,3.0212,3.0217,3.0157,3.0157,3.0157,0,0,3.0049,3.0054,3.0063,3.0079,3.0084,3.01,3.0083,3.0099,3.0111,3.0098,3.012,3.0123,3.0132,3.0158,3.0169,3.0161,3.0211,3.0194,3.0196,3.0198,3.0215,3.0221,3.0226,3.0158,3.0158,3.0158,0,0,3.008,3.0084,3.0103,3.011,3.012,3.0121,3.0125,3.0133,3.0135,3.0157,3.0149,3.0163,3.0185,3.0193,3.02,3.0238,3.0231,3.0242,3.0263,3.0281,3.0286,3.029,3.0306,3.0312,3.0245,3.0245,3.0245,0,3.0094,3.0116,3.0113,3.0131,3.0139,3.013,3.0151,3.0157,3.017,3.0177,3.0167,3.0198,3.0203,3.0232,3.0242,3.0246,3.0253,3.0241,3.0285,3.029,3.0294,3.0309,3.0315,3.0246,3.0246,3.0246,3.0246,0,3.0134,3.015,3.0164,3.0179,3.0189,3.0207,3.0209,3.0219,3.0217,3.0219,3.0243,3.0249,3.0265,3.0271,3.0267,3.0301,3.0296,3.0286,3.0269,3.0301,3.0315,3.0321,3.0248,3.0248,3.0247,3.0247,0,0,3.0173,3.0188,3.0194,3.0202,3.0214,3.0226,3.0246,3.0262,3.0272,3.0282,3.0299,3.032,3.0313,3.0321,3.0318,3.0334,3.0367,3.0323,3.0323,3.0333,3.0408,3.0416,3.0423,3.0363,3.0364,3.0365,3.0408,0,3.0206,3.024,3.024,3.0272,3.0289,3.0282,3.03,3.031,3.0313,3.0328,3.0332,3.0348,3.0335,3.0341,3.0355,3.036,3.0383,3.0357,3.0381,3.0382,3.0381,3.043,3.0438,3.0478,3.0413,3.0414,3.0415,0,3.0248,3.0262,3.0297,3.031,3.0316,3.0332,3.0349,3.0362,3.0374,3.0376,3.0387,3.0383,3.0405,3.0388,3.0419,3.0401,3.0411,3.0416,3.0417,3.042,3.0401,3.0437,3.0491,3.0498,3.0423,3.0422,3.0422,0,3.0277,3.0303,3.0328,3.0335,3.035,3.0362,3.0368,3.0379,3.039,3.0405,3.0412,3.0428,3.0438,3.0451,3.0453,3.044,3.0485,3.0467,3.0489,3.0489,3.0499,3.0499,3.0558,3.0503,3.0503,3.0503,3.0503,0,3.0314,3.0336,3.0342,3.0357,3.0383,3.0383,3.0408,3.0414,3.0425,3.0442,3.0437,3.0454,3.0454,3.0472,3.0473,3.0501,3.0504,3.0507,3.0508,3.0509,3.0509,3.0516,3.0514,3.0504,3.0504,3.0504,3.0503,0,3.035,3.0354,3.0381,3.0394,3.0398,3.0417,3.0428,3.0444,3.0448,3.0471,3.0476,3.0482,3.0503,3.0507,3.053,3.0531,3.0565,3.0561,3.0562,3.0562,3.0584,3.0583,3.0652,3.0662,3.0598,3.0599,3.0599,0,3.0374,3.0391,3.0407,3.0419,3.0427,3.0446,3.0458,3.0459,3.0472,3.0489,3.0504,3.0524,3.0541,3.0575,3.0582,3.0601,3.06,3.0622,3.0602,3.0604,3.0603,3.0603,3.0606,3.0627,3.0627,3.0628,3.0628,0,3.0418,3.0421,3.0438,3.0457,3.0472,3.0487,3.0501,3.0511,3.0515,3.053,3.0552,3.0565,3.0591,3.0613,3.0633,3.064,3.0636,3.0635,3.0641,3.0643,3.0644,3.0647,3.0574,3.0633,3.0633,3.0632,3.0632,3.0632,3.0451,3.0467,3.0482,3.0502,3.0514,3.0528,3.0545,3.0552,3.0571,3.0593,3.0593,3.0618,3.0633,3.0659,3.0669,3.0689,3.0682,3.069,3.0693,3.0696,3.0699,3.0639,3.0692,3.0692,3.0692,3.0692,3.0692,0,3.0497,3.0507,3.0526,3.0547,3.0564,3.0559,3.0575,3.059,3.0613,3.0627,3.0645,3.0672,3.0694,3.0704,3.0726,3.074,3.0739,3.0746,3.0746,3.0749,3.0703,3.0696,3.0747,3.0747,3.0747,3.0747,3.0747,3.0747,3.0523,3.0551,3.0556,3.0591,3.0601,3.0626,3.0637,3.0651,3.0663,3.0694,3.0712,3.0719,3.0733,3.0756,3.0777,3.078,3.0789,3.0798,3.0799,3.0757,3.0751,3.0746,3.074,3.0799,3.0799,3.0844,3.0844,3.0845]}]]